| time (UTC) | temp C | wind direction | speed KPH | gust KPH | rain 1hr cm | rain 24hr cm | rain mn cm | humidity % | barometer mb |
| 20260504150221 | 22 | 154 | 3.2 | 6.4 | 0.00 | 0.00 | 0.00 | 84 | 1019.7 |
| 20260504140800 | 22 | 52 | 3.2 | 8.0 | 0.00 | 0.00 | 0.00 | 82 | 1019.9 |
| 20260504140305 | 22 | 17 | 3.2 | 8.0 | 0.00 | 0.00 | 0.00 | 82 | 1019.9 |
| 20260504130110 | 20 | 205 | 1.6 | 8.0 | 0.00 | 0.00 | 0.00 | 86 | 1020.6 |
| 20260504110505 | 18 | 165 | 0.0 | 4.8 | 0.00 | 0.00 | 0.00 | 92 | 1020.4 |
| 20260504100406 | 17 | 183 | 0.0 | 1.6 | 0.00 | 0.00 | 0.00 | 94 | 1019.9 |
| 20260504081754 | 17 | 172 | 0.0 | 0.0 | 0.00 | 0.00 | 0.00 | 94 | 1018.8 |
| 20260504081251 | 17 | 172 | 0.0 | 3.2 | 0.00 | 0.00 | 0.00 | 94 | 1018.8 |
| 20260504080757 | 17 | 172 | 0.0 | 3.2 | 0.00 | 0.00 | 0.00 | 94 | 1018.8 |
| 20260504080248 | 17 | 172 | 0.0 | 1.6 | 0.00 | 0.00 | 0.00 | 94 | 1018.8 |
| 20260504050431 | 16 | 181 | 0.0 | 0.0 | 0.00 | 0.00 | 0.00 | 95 | 1020.1 |
| 20260504045930 | 16 | 181 | 0.0 | 3.2 | 0.00 | 0.00 | 0.00 | 95 | 1020.2 |
| 20260504045644 | 16 | 181 | 1.6 | 3.2 | 0.00 | 0.00 | 0.00 | 95 | 1020.3 |
| 20260504044931 | 16 | 181 | 0.0 | 3.2 | 0.00 | 0.00 | 0.00 | 95 | 1020.3 |
| 20260504044641 | 16 | 200 | 0.0 | 3.2 | 0.00 | 0.00 | 0.00 | 95 | 1020.4 |
| 20260504044135 | 16 | 200 | 0.0 | 3.2 | 0.00 | 0.00 | 0.00 | 95 | 1020.4 |
| 20260504043358 | 16 | 200 | 1.6 | 3.2 | 0.00 | 0.00 | 0.00 | 95 | 1020.5 |
| 20260504043337 | 16 | 200 | 0.0 | 3.2 | 0.00 | 0.00 | 0.00 | 95 | 1020.7 |
| 20260504042354 | 16 | 130 | 1.6 | 3.2 | 0.00 | 0.00 | 0.00 | 95 | 1020.8 |
| 20260504041855 | 16 | 130 | 1.6 | 4.8 | 0.00 | 0.00 | 0.00 | 95 | 1020.7 |
| 20260504041351 | 16 | 130 | 0.0 | 4.8 | 0.00 | 0.00 | 0.00 | 95 | 1020.7 |
| 20260504040852 | 16 | 110 | 0.0 | 0.0 | 0.00 | 0.00 | 0.00 | 95 | 1020.9 |
| 20260504040612 | 16 | 110 | 0.0 | 0.0 | 0.00 | 0.00 | 0.00 | 95 | 1021.0 |
| 20260504035849 | 16 | 110 | 0.0 | 0.0 | 0.00 | 0.00 | 0.00 | 95 | 1020.9 |
| 20260504035346 | 16 | 110 | 0.0 | 0.0 | 0.00 | 0.00 | 0.00 | 95 | 1021.0 |
| 20260504034846 | 16 | 110 | 0.0 | 0.0 | 0.00 | 0.00 | 0.00 | 96 | 1020.9 |
| 20260504034829 | 16 | 110 | 0.0 | 0.0 | 0.00 | 0.00 | 0.00 | 96 | 1021.0 |
| 20260504033841 | 16 | 110 | 0.0 | 0.0 | 0.00 | 0.00 | 0.00 | 95 | 1020.9 |
| 20260504033339 | 16 | 110 | 0.0 | 0.0 | 0.00 | 0.00 | 0.00 | 96 | 1021.0 |
| 20260504033105 | 16 | 110 | 0.0 | 0.0 | 0.00 | 0.00 | 0.00 | 96 | 1021.2 |
| 20260504032336 | 16 | 110 | 0.0 | 0.0 | 0.00 | 0.00 | 0.00 | 96 | 1021.3 |
| 20260504032053 | 16 | 110 | 0.0 | 0.0 | 0.00 | 0.00 | 0.00 | 96 | 1021.3 |
| 20260504031554 | 16 | 110 | 0.0 | 0.0 | 0.00 | 0.00 | 0.00 | 96 | 1021.3 |
| 20260504030831 | 16 | 110 | 0.0 | 0.0 | 0.00 | 0.00 | 0.00 | 95 | 1021.4 |
| 20260504030319 | 16 | 110 | 0.0 | 0.0 | 0.00 | 0.00 | 0.00 | 95 | 1021.5 |
| 20260504030044 | 16 | 110 | 0.0 | 0.0 | 0.00 | 0.00 | 0.00 | 95 | 1021.5 |
| 20260504025311 | 16 | 110 | 0.0 | 0.0 | 0.00 | 0.00 | 0.00 | 95 | 1021.5 |
| 20260504024807 | 16 | 110 | 0.0 | 0.0 | 0.00 | 0.00 | 0.00 | 95 | 1021.7 |
| 20260504024308 | 16 | 110 | 0.0 | 0.0 | 0.00 | 0.00 | 0.00 | 95 | 1021.7 |
| 20260504024029 | 16 | 110 | 0.0 | 0.0 | 0.00 | 0.00 | 0.00 | 95 | 1021.7 |
| 20260504023308 | 16 | 110 | 0.0 | 0.0 | 0.00 | 0.00 | 0.00 | 95 | 1021.6 |
| 20260504022805 | 16 | 110 | 0.0 | 0.0 | 0.00 | 0.00 | 0.00 | 94 | 1021.6 |
| 20260504022304 | 16 | 110 | 0.0 | 0.0 | 0.00 | 0.00 | 0.00 | 94 | 1021.6 |
| 20260504021759 | 16 | 110 | 0.0 | 0.0 | 0.00 | 0.00 | 0.00 | 94 | 1021.8 |
| 20260504021258 | 16 | 110 | 0.0 | 0.0 | 0.00 | 0.00 | 0.00 | 94 | 1021.8 |
| 20260504021241 | 16 | 110 | 0.0 | 0.0 | 0.00 | 0.00 | 0.00 | 93 | 1021.8 |
| 20260504020255 | 16 | 110 | 0.0 | 0.0 | 0.00 | 0.00 | 0.00 | 93 | 1021.9 |
| 20260504015748 | 16 | 110 | 0.0 | 0.0 | 0.00 | 0.00 | 0.00 | 93 | 1022.0 |
| 20260504015246 | 16 | 110 | 0.0 | 0.0 | 0.00 | 0.00 | 0.00 | 93 | 1022.1 |
| 20260504014744 | 16 | 110 | 0.0 | 0.0 | 0.00 | 0.00 | 0.00 | 93 | 1022.1 |
| 20260504014244 | 16 | 110 | 0.0 | 0.0 | 0.00 | 0.00 | 0.00 | 93 | 1022.1 |
| 20260504013723 | 16 | 110 | 0.0 | 0.0 | 0.00 | 0.00 | 0.00 | 93 | 1022.1 |
| 20260504013224 | 16 | 110 | 0.0 | 0.0 | 0.00 | 0.00 | 0.00 | 93 | 1022.1 |
| 20260504012710 | 16 | 110 | 0.0 | 0.0 | 0.00 | 0.00 | 0.00 | 92 | 1022.1 |
| 20260504012209 | 16 | 110 | 0.0 | 0.0 | 0.00 | 0.00 | 0.00 | 92 | 1022.1 |
| 20260504011702 | 16 | 110 | 0.0 | 0.0 | 0.00 | 0.00 | 0.00 | 92 | 1022.1 |
| 20260504011201 | 16 | 110 | 0.0 | 0.0 | 0.00 | 0.00 | 0.00 | 92 | 1022.1 |
| 20260504010702 | 16 | 110 | 0.0 | 0.0 | 0.00 | 0.00 | 0.00 | 91 | 1022.0 |
| 20260504010159 | 17 | 110 | 0.0 | 0.0 | 0.00 | 0.00 | 0.00 | 91 | 1022.1 |
| 20260504005655 | 17 | 110 | 0.0 | 0.0 | 0.00 | 0.00 | 0.00 | 91 | 1022.1 |
| 20260504005153 | 17 | 110 | 0.0 | 0.0 | 0.00 | 0.00 | 0.00 | 91 | 1022.1 |
| 20260504004650 | 17 | 110 | 0.0 | 0.0 | 0.00 | 0.00 | 0.00 | 90 | 1022.2 |
| 20260504004148 | 17 | 110 | 0.0 | 0.0 | 0.00 | 0.00 | 0.00 | 90 | 1022.1 |
| 20260504003641 | 17 | 110 | 0.0 | 0.0 | 0.00 | 0.00 | 0.00 | 89 | 1022.2 |
| 20260504003141 | 17 | 110 | 0.0 | 0.0 | 0.00 | 0.00 | 0.00 | 90 | 1022.1 |
| 20260504002905 | 17 | 110 | 0.0 | 0.0 | 0.00 | 0.00 | 0.00 | 91 | 1022.1 |
| 20260504002357 | 17 | 110 | 0.0 | 0.0 | 0.00 | 0.00 | 0.00 | 90 | 1022.0 |
| 20260504001611 | 17 | 110 | 0.0 | 0.0 | 0.00 | 0.00 | 0.00 | 90 | 1022.0 |
| 20260504001332 | 17 | 110 | 0.0 | 0.0 | 0.00 | 0.00 | 0.00 | 90 | 1022.0 |
| 20260504000607 | 17 | 110 | 0.0 | 0.0 | 0.00 | 0.00 | 0.00 | 90 | 1022.1 |
| 20260504000106 | 17 | 110 | 0.0 | 0.0 | 0.00 | 0.00 | 0.00 | 89 | 1022.0 |
| 20260503235601 | 17 | 110 | 0.0 | 0.0 | 0.00 | 0.00 | 0.00 | 90 | 1022.0 |
| 20260503235059 | 17 | 110 | 0.0 | 0.0 | 0.00 | 0.00 | 0.00 | 90 | 1022.0 |
| 20260503234556 | 17 | 110 | 0.0 | 0.0 | 0.00 | 0.00 | 0.00 | 89 | 1022.1 |
| 20260503234053 | 17 | 110 | 0.0 | 0.0 | 0.00 | 0.00 | 0.00 | 90 | 1022.1 |
| 20260503233550 | 17 | 110 | 0.0 | 0.0 | 0.00 | 0.00 | 0.00 | 90 | 1022.1 |
| 20260503233050 | 17 | 110 | 0.0 | 0.0 | 0.00 | 0.00 | 0.00 | 90 | 1022.1 |
| 20260503232546 | 17 | 110 | 0.0 | 0.0 | 0.00 | 0.00 | 0.00 | 90 | 1022.1 |
| 20260503232046 | 17 | 110 | 0.0 | 0.0 | 0.00 | 0.00 | 0.00 | 90 | 1022.1 |
| 20260503231803 | 17 | 110 | 0.0 | 3.2 | 0.00 | 0.00 | 0.00 | 90 | 1022.1 |
| 20260503231042 | 17 | 110 | 0.0 | 3.2 | 0.00 | 0.00 | 0.00 | 90 | 1022.0 |
| 20260503230537 | 17 | 110 | 0.0 | 1.6 | 0.00 | 0.00 | 0.00 | 90 | 1022.0 |
| 20260503230040 | 17 | 110 | 0.0 | 1.6 | 0.00 | 0.00 | 0.00 | 90 | 1021.9 |
| 20260503225514 | 17 | 110 | 0.0 | 0.0 | 0.00 | 0.00 | 0.00 | 90 | 1021.9 |
| 20260503225012 | 17 | 110 | 0.0 | 0.0 | 0.00 | 0.00 | 0.00 | 89 | 1021.9 |
| 20260503224511 | 17 | 110 | 0.0 | 1.6 | 0.00 | 0.00 | 0.00 | 88 | 1021.9 |
| 20260503224229 | 17 | 110 | 0.0 | 1.6 | 0.00 | 0.00 | 0.00 | 88 | 1021.7 |
| 20260503223506 | 17 | 110 | 0.0 | 1.6 | 0.00 | 0.00 | 0.00 | 87 | 1021.6 |
| 20260503223004 | 17 | 110 | 0.0 | 3.2 | 0.00 | 0.00 | 0.00 | 87 | 1021.7 |
| 20260503222504 | 17 | 110 | 0.0 | 3.2 | 0.00 | 0.00 | 0.00 | 86 | 1021.6 |
| 20260503221958 | 17 | 110 | 0.0 | 3.2 | 0.00 | 0.00 | 0.00 | 86 | 1021.6 |
| 20260503221457 | 17 | 110 | 1.6 | 3.2 | 0.00 | 0.00 | 0.00 | 85 | 1021.6 |
| 20260503220957 | 17 | 110 | 1.6 | 3.2 | 0.00 | 0.00 | 0.00 | 85 | 1021.7 |
| 20260503220451 | 17 | 110 | 0.0 | 3.2 | 0.00 | 0.00 | 0.00 | 85 | 1021.7 |
| 20260503215949 | 17 | 110 | 0.0 | 0.0 | 0.00 | 0.00 | 0.00 | 85 | 1021.7 |
| 20260503215446 | 18 | 110 | 0.0 | 1.6 | 0.00 | 0.00 | 0.00 | 85 | 1021.8 |
| 20260503214947 | 18 | 110 | 0.0 | 3.2 | 0.00 | 0.00 | 0.00 | 84 | 1021.7 |
| 20260503214434 | 18 | 110 | 0.0 | 3.2 | 0.00 | 0.00 | 0.00 | 84 | 1021.6 |
| 20260503214158 | 18 | 110 | 0.0 | 3.2 | 0.00 | 0.00 | 0.00 | 84 | 1021.6 |
| 20260503213653 | 18 | 110 | 0.0 | 3.2 | 0.00 | 0.00 | 0.00 | 83 | 1021.6 |
| 20260503212932 | 18 | 110 | 1.6 | 4.8 | 0.00 | 0.00 | 0.00 | 83 | 1021.6 |
| 20260503212430 | 18 | 110 | 1.6 | 4.8 | 0.00 | 0.00 | 0.00 | 82 | 1021.5 |
| 20260503211929 | 18 | 110 | 1.6 | 6.4 | 0.00 | 0.00 | 0.00 | 82 | 1021.5 |
| 20260503211426 | 18 | 110 | 3.2 | 6.4 | 0.00 | 0.00 | 0.00 | 82 | 1021.5 |
| 20260503210926 | 18 | 127 | 3.2 | 6.4 | 0.00 | 0.00 | 0.00 | 82 | 1021.6 |
| 20260503210423 | 18 | 127 | 3.2 | 6.4 | 0.00 | 0.00 | 0.00 | 82 | 1021.5 |
| 20260503205922 | 18 | 123 | 3.2 | 6.4 | 0.00 | 0.00 | 0.00 | 80 | 1021.5 |
| 20260503205418 | 18 | 133 | 3.2 | 4.8 | 0.00 | 0.00 | 0.00 | 80 | 1021.5 |
| 20260503204923 | 19 | 123 | 0.0 | 4.8 | 0.00 | 0.00 | 0.00 | 80 | 1021.5 |
| 20260503204356 | 20 | 123 | 0.0 | 0.0 | 0.00 | 0.00 | 0.00 | 79 | 1021.4 |
| 20260503203828 | 20 | 123 | 0.0 | 0.0 | 0.00 | 0.00 | 0.00 | 77 | 1021.4 |
| 20260503203300 | 20 | 123 | 0.0 | 0.0 | 0.00 | 0.00 | 0.00 | 77 | 1021.3 |
| 20260503202735 | 20 | 123 | 0.0 | 0.0 | 0.00 | 0.00 | 0.00 | 76 | 1021.3 |
| 20260503202211 | 20 | 123 | 0.0 | 0.0 | 0.00 | 0.00 | 0.00 | 74 | 1021.2 |
| 20260503201652 | 21 | 123 | 0.0 | 0.0 | 0.00 | 0.00 | 0.00 | 71 | 1021.3 |
| 20260503201150 | 21 | 123 | 0.0 | 0.0 | 0.00 | 0.00 | 0.00 | 72 | 1021.3 |
| 20260503200653 | 21 | 123 | 0.0 | 3.2 | 0.00 | 0.00 | 0.00 | 71 | 1021.2 |
| 20260503200150 | 21 | 123 | 0.0 | 3.2 | 0.00 | 0.00 | 0.00 | 74 | 1021.3 |
| 20260503195645 | 21 | 123 | 0.0 | 3.2 | 0.00 | 0.00 | 0.00 | 71 | 1021.3 |
| 20260503195147 | 21 | 123 | 1.6 | 3.2 | 0.00 | 0.00 | 0.00 | 70 | 1021.3 |
| 20260503194646 | 21 | 123 | 1.6 | 4.8 | 0.00 | 0.00 | 0.00 | 71 | 1021.3 |
| 20260503194144 | 21 | 123 | 1.6 | 4.8 | 0.00 | 0.00 | 0.00 | 69 | 1021.2 |
| 20260503193646 | 21 | 122 | 0.0 | 3.2 | 0.00 | 0.00 | 0.00 | 68 | 1021.2 |
| 20260503193140 | 21 | 122 | 0.0 | 1.6 | 0.00 | 0.00 | 0.00 | 69 | 1021.2 |
| 20260503192637 | 21 | 122 | 0.0 | 3.2 | 0.00 | 0.00 | 0.00 | 67 | 1021.2 |
| 20260503192137 | 21 | 122 | 1.6 | 4.8 | 0.00 | 0.00 | 0.00 | 67 | 1021.2 |
| 20260503191642 | 21 | 122 | 1.6 | 4.8 | 0.00 | 0.00 | 0.00 | 64 | 1021.2 |
| 20260503191116 | 21 | 122 | 1.6 | 6.4 | 0.00 | 0.00 | 0.00 | 63 | 1021.2 |
| 20260503190552 | 21 | 122 | 1.6 | 6.4 | 0.00 | 0.00 | 0.00 | 60 | 1021.2 |
| 20260503190249 | 21 | 122 | 1.6 | 4.8 | 0.00 | 0.00 | 0.00 | 58 | 1021.2 |
| 20260503185508 | 21 | 122 | 1.6 | 4.8 | 0.00 | 0.00 | 0.00 | 60 | 1021.2 |
| 20260503185012 | 21 | 122 | 3.2 | 6.4 | 0.00 | 0.00 | 0.00 | 62 | 1021.2 |
| 20260503184452 | 21 | 122 | 3.2 | 6.4 | 0.00 | 0.00 | 0.00 | 61 | 1021.3 |
| 20260503183955 | 21 | 122 | 1.6 | 6.4 | 0.00 | 0.00 | 0.00 | 59 | 1021.3 |
| 20260503183434 | 22 | 227 | 0.0 | 4.8 | 0.00 | 0.00 | 0.00 | 59 | 1021.3 |
| 20260503183156 | 22 | 139 | 0.0 | 3.2 | 0.00 | 0.00 | 0.00 | 58 | 1021.3 |
| 20260503182411 | 21 | 156 | 3.2 | 8.0 | 0.00 | 0.00 | 0.00 | 59 | 1021.4 |
| 20260503181842 | 21 | 147 | 3.2 | 8.0 | 0.00 | 0.00 | 0.00 | 58 | 1021.4 |
| 20260503181321 | 22 | 123 | 3.2 | 6.4 | 0.00 | 0.00 | 0.00 | 59 | 1021.3 |
| 20260503180826 | 22 | 231 | 1.6 | 6.4 | 0.00 | 0.00 | 0.00 | 59 | 1021.3 |
| 20260503180320 | 22 | 233 | 3.2 | 6.4 | 0.00 | 0.00 | 0.00 | 58 | 1021.4 |
| 20260503180042 | 22 | 225 | 3.2 | 6.4 | 0.00 | 0.00 | 0.00 | 59 | 1021.4 |
| 20260503175322 | 22 | 189 | 1.6 | 4.8 | 0.00 | 0.00 | 0.00 | 59 | 1021.3 |
| 20260503174815 | 22 | 147 | 3.2 | 8.0 | 0.00 | 0.00 | 0.00 | 59 | 1021.3 |
| 20260503174313 | 22 | 212 | 3.2 | 8.0 | 0.00 | 0.00 | 0.00 | 57 | 1021.3 |
| 20260503173809 | 22 | 218 | 3.2 | 8.0 | 0.00 | 0.00 | 0.00 | 59 | 1021.4 |
| 20260503173310 | 21 | 155 | 3.2 | 9.7 | 0.00 | 0.00 | 0.00 | 59 | 1021.4 |
| 20260503172806 | 21 | 194 | 3.2 | 9.7 | 0.00 | 0.00 | 0.00 | 60 | 1021.3 |
| 20260503172305 | 21 | 163 | 4.8 | 14.5 | 0.00 | 0.00 | 0.00 | 59 | 1021.3 |
| 20260503171810 | 21 | 241 | 4.8 | 14.5 | 0.00 | 0.00 | 0.00 | 60 | 1021.4 |
| 20260503171306 | 21 | 151 | 3.2 | 12.9 | 0.00 | 0.00 | 0.00 | 59 | 1021.5 |
| 20260503170806 | 21 | 133 | 4.8 | 12.9 | 0.00 | 0.00 | 0.00 | 57 | 1021.5 |
| 20260503170526 | 21 | 143 | 4.8 | 12.9 | 0.00 | 0.00 | 0.00 | 58 | 1021.5 |
| 20260503150743 | 20 | 237 | 8.0 | 19.3 | 0.00 | 0.00 | 0.00 | 63 | 1022.9 |